Showing default

KINEIS-5B, 62085

Orbit data source: Space-Track

KINEIS-5B, 62085 is a French payload satellite in SSO that was launched on Mon, 25 Nov 2024 UTC via an ELECTRON launch vehicle from the Rocket Lab Launch Complex (RLLC). Payload-class satellites include a variety of spacecraft equipped with specific instruments for various scientific and technological missions. These include communications satellites like Starlink; space stations such as the ISS; scientific satellites like the Hubble; Earth observation satellites from companies like Planet Labs, Umbra, and HawkEye 360; GPS; miniature CubeSats for education and research; and military/defense satellites.

Loading next visibility...
Identifier
62085, 2024-219E
Orbit
SSO
Last TLE update
7 hours ago
Origin
Manufacturer
KINEIS
Mission
Operational Commercial Communications
Bus & Motor
CUBESAT 16U, Unknown motor
Mass
28 kg wet, 28 kg dry
Launch date (UTC)
2024-11-25 (7 months ago)
Launch vehicle
ELECTRON
Launch site
Rocket Lab Launch Complex (RLLC)
Object type
Payload
Rocket body
Debris
Shape & HBR
Box + 2 Pan + 1 Ant, 1.6 m
Radar Cross Section
0.229 m², Medium (>0.1 m² and < 1m²)

Expand to show TLE details & history

TLE from 7 hours ago
0 KINEIS-5B
1 62085U 24219E   25188.58092987  .00000938  00000-0  14053-3 0  9997
2 62085  97.9720 350.4763 0000860 349.2761  10.8431 14.76930116 33114
Epoch: 2025-07-07T13:56Z
TLE epoch observation values (Epoch: 2025-07-07T13:56:32.34Z)
Latitude
Longitude
-144.44667°
Altitude
641.453 km
Speed
7.538 km/s
True Right ascension
23h 21m 54s
True Declination
0° 00' 00"
Sunlit
Object was in daylight at epoch
Visualization orbit readout
Latitude
70.39111°
Longitude
-167.18027°
Altitude
651.117 km
Speed
7.539 km/s
Apparent Right ascension
21h 09m 49s
Apparent Declination
19° 19' 47"
Sunlit
Object is in daylight
Visualization observer readout
Local Sidereal Time
08:50:02
Azimuth
354.577° N
Elevation
-30.575°
Doppler factor
1
Orbital elements
Apogee altitude
636.682 km
Perigee altitude
635.476 km
Semi-major axis
7,014.216 km
Eccentricity
0.00009
Inclination
97.972°
RAAN
350.4763°
Arg. of periapsis
349.2761°
True anomaly
Unknown
Mean anomaly
10.8431°
Eccentric anomaly
Unknown
Mean motion
3.69466 °/min
Orbital period
97.44 mins
BSTAR
0.00014053
Loading maneuver chart data...
Loading SW <> Apogee altitude chart data...
Loading historical data...
Loading historical data...
Loading historical data...
Loading historical data...
Loading historical data...
Loading historical data...
Loading historical data...

KINEIS-5B Visibility forecast

Observer location: undefined°, undefined°

Span
Click to sort rows by Start time (UTC) header in descending order
Start Az.
Max El. time (UTC)
Max El. Az.
Max El.
End time (UTC)
End Az.
5 mins2025-07-07 22:40:14.062Z56.556° ENE2025-07-07 22:42:14.062Z86.608° E17.179°2025-07-07 22:45:14.062Z132.863° SE
7 mins2025-07-08 00:16:14.062Z349.493° N2025-07-08 00:19:14.062Z288.107° WNW31.825°2025-07-08 00:23:14.062Z221.127° SW
7 mins2025-07-08 11:12:14.062Z189.566° SSW2025-07-08 11:15:14.062Z248.93° W36.832°2025-07-08 11:19:14.062Z333.92° NNW
|